Change the Weather History Date:

Wednesday, April 17, 2013

  Actual Average Record
Temperature  
Mean Temperature 86 °F -  
Max Temperature 99 °F - - ()
Min Temperature 73 °F - - ()
Cooling Degree Days 21    
Growing Degree Days 36 (Base 50)    
Moisture  
Dew Point 35 °F    
Average Humidity 15    
Maximum Humidity 31    
Minimum Humidity 5    
Precipitation  
Precipitation 0.00 in - - ()
Sea Level Pressure  
Sea Level Pressure 29.64 in    
Wind  
Wind Speed 5 mph ()    
Max Wind Speed 10 mph    
Max Gust Speed -    
Visibility 2.5 miles    
Events      
T = Trace of Precipitation, MM = Missing Value Source: Averaged Metar Reports

Daily Weather History Graph

Daily Weather History Graph

Search for Another Location

Airport or City:

Trip Planner

Search our weather history database for the weather conditions in past years. The results will help you decide how hot, cold, wet, or windy it might be!

Date:

Astronomy

Apr. 17, 2013 Rise Set
Actual Time 6:01 AM IST 6:51 PM IST
Civil Twilight 5:37 AM IST 7:15 PM IST
Nautical Twilight 5:09 AM IST 7:43 PM IST
Astronomical Twilight 4:40 AM IST 8:12 PM IST
Moon 11:01 AM IST (4/17) No Moon Set
Length of Visible Light 13h 38m
Length of Day
12h 50m
Waxing Crescent, 38% of the Moon is Illuminated
Apr 17
Waxing Crescent
Apr 18
First Quarter
Apr 26
Full
May 2
Last Quarter
May 10
New

Hourly Weather History & Observations

Time (IST) Temp. Dew Point Humidity Pressure Visibility Wind Dir Wind Speed Gust Speed Precip Events Conditions
12:00 AM 87.8 °F 37.4 °F 17% 29.65 in 2.2 mi NW 5.8 mph - N/A   Haze
1:00 AM 87.8 °F 39.2 °F 18% 29.65 in 2.2 mi Variable 8.1 mph - N/A   Haze
2:00 AM 86.0 °F 39.2 °F 19% 29.62 in 2.2 mi Variable 10.4 mph - N/A   Haze
2:30 AM 86 °F 47 °F 16% 29.55 in 1 mi 5.8 mph - -   Haze
3:00 AM 84.2 °F 39.2 °F 20% 29.65 in 2.2 mi NE 8.1 mph - N/A   Haze
4:00 AM 80.6 °F 41.0 °F 24% 29.65 in 2.2 mi SW 6.9 mph - N/A   Haze
5:00 AM 77.0 °F 41.0 °F 28% 29.65 in 2.2 mi Calm Calm - N/A   Haze
6:00 AM 75.2 °F 42.8 °F 31% 29.65 in 2.2 mi Variable 1.2 mph - N/A   Haze
8:00 AM 82.4 °F 44.6 °F 26% 29.68 in 2.5 mi Variable 2.3 mph - N/A   Haze
8:30 AM 84 °F 46 °F 17% 29.62 in 2 mi South 3.5 mph - -   Haze
9:00 AM 86.0 °F 42.8 °F 22% 29.68 in 2.5 mi SW 6.9 mph - N/A   Haze
10:00 AM 87.8 °F 41.0 °F 19% 29.74 in 2.5 mi WSW 6.9 mph - N/A   Haze
11:00 AM 91.4 °F 41.0 °F 17% 29.71 in 2.5 mi Variable 5.8 mph - N/A   Haze
11:30 AM 93 °F 45 °F 11% 29.62 in 2 mi West 4.6 mph - -   Haze
12:00 PM 93.2 °F 37.4 °F 14% 29.71 in 3.1 mi Variable 8.1 mph - N/A   Haze
1:00 PM 95.0 °F 35.6 °F 12% 29.68 in 3.1 mi Variable 6.9 mph - N/A   Haze
1:30 PM 96.8 °F 35.6 °F 12% 29.68 in 3.1 mi Variable 5.8 mph - N/A   Haze
2:00 PM 98.6 °F 33.8 °F 10% 29.65 in 3.1 mi Variable 4.6 mph - N/A   Haze
2:30 PM 99 °F 33 °F 5% 29.55 in 2 mi East 2.3 mph - -   Haze
2:30 PM 98.6 °F 32.0 °F 10% 29.65 in 3.1 mi Variable 4.6 mph - N/A   Haze
3:00 PM 98.6 °F 32.0 °F 10% 29.62 in 3.1 mi Variable 4.6 mph - N/A   Haze
3:30 PM 98.6 °F 32.0 °F 10% 29.62 in 3.1 mi Variable 8.1 mph - N/A   Haze
4:00 PM 98.6 °F 32.0 °F 10% 29.62 in 3.1 mi Variable 4.6 mph - N/A   Haze
4:30 PM 98.6 °F 33.8 °F 10% 29.59 in 3.1 mi Variable 4.6 mph - N/A   Haze
5:00 PM 98.6 °F 26.6 °F 8% 29.59 in 3.1 mi West 8.1 mph - N/A   Haze
5:30 PM 96.8 °F 23.0 °F 7% 29.62 in 3.1 mi NW 5.8 mph - N/A   Haze
6:00 PM 96.8 °F 21.2 °F 7% 29.62 in 3.1 mi WNW 8.1 mph - N/A   Haze
6:30 PM 95.0 °F 15.8 °F 6% 29.62 in 2.5 mi WNW 8.1 mph - N/A   Haze
7:00 PM 93.2 °F 21.2 °F 7% 29.62 in 2.5 mi Calm Calm - N/A   Haze
8:00 PM 91.4 °F 26.6 °F 10% 29.65 in 2.5 mi Calm Calm - N/A   Haze
8:30 PM 90 °F 35 °F 7% 29.56 in 2 mi Calm Calm - -   Haze
9:00 PM 87.8 °F 33.8 °F 15% 29.65 in 2.5 mi Calm Calm - N/A   Haze
10:00 PM 82.4 °F 37.4 °F 20% 29.68 in 2.5 mi Calm Calm - N/A   Haze
11:00 PM 80.6 °F 39.2 °F 23% 29.68 in 2.5 mi Calm Calm - N/A   Haze